Погода Черновцы

Погода Черновцы : погода сейчас, прогноз погоды и архив. Всё, что Вы хотите узнать о погоде Черновцы!

Поиск расширенной информации на нашем сайте:

Другие новости

Новости СМИ2

Главная страница сайта

Новости сайта

03.07.2017

Напоминаем, что на нашем специализированном сайте Метеоцентр.Азия вы можете получить высокодетализированные автоматические прогнозы погоды по пунктам России, СНГ и мира в авиационном формате (включающие направление и скорость ветра, видимость, явления погоды, количество и форму облачности, нижнюю и верхнюю границу облачности).


Погода Черновцы - сегодня

Время (UTC), дата Ветер
(°,м/с) 
Видим.   Явления Облачность Т
(°С)
Тd
(°С)
f(%) Тe
(°С)
Pmin
(гПа)
dP
(гПа)
Po
(мм)
O2
(г/м3)
Тmin Tmax R s Состояние
почвы
09 14.12.17 120 (ЮВ) 5000 м  дымка  9/9 120 м 
[St]
+1.9 +1.1 94 1007.9  -1.2  733  293           
12 14.12.17 080 (В) 8000 м  дымка  8/0 средняя 
[Ac trans]
+3.4 +2.7 95 +1  1005.9  -1.7  732  291           
15 14.12.17 100 (В) 2100 м  дымка{ливн. осадки}  8/5 1000 м кучево-дожд., средняя 
[Cb calv|Ac trans]
+2.6 +2.1 96 +2  1005.4  -0.6  732  292           
18 14.12.17 250 (З) 1500 м  дымка{ливн. осадки}  9/5 1000 м кучево-дожд., средняя 
[Cb calv|Ac trans]
+2.3 +2 98 +3  1006.1  0.6  732  292    +5  0.0     
21 14.12.17 130 (ЮВ) 10 км    4/0 средняя 
[Ac trans]
+2.4 +0.8 89 +2  1006.4  0.3  732  292           
00 15.12.17 140 (ЮВ) 50000 м    4/0 средняя 
[Ac trans]
+2.9 +0.3 83 +4  1006.3  732  292           
03 15.12.17 110 (В) 18000 м    10/4 1000 м кучево-дожд., средняя 
[Cb calv|Ac As]
+1.2 +0.7 96 1005.2  -1.3  731  293           
06 15.12.17 140 (ЮВ) 35000 м  {ливн. осадки}  9/4 1000 м кучево-дожд., средняя 
[Cb calv|Ac trans]
+2.6 +1.3 91 +2  1006  732  292  +1    0.0     
09 15.12.17 100 (В) 17000 м    9/9 1500 м 
[Sc]
+2.9 +2.1 94 +2  1005.3  -0.7  731  291           
12 15.12.17 040 (СВ) 22000 м    8/8 1500 м 
[Sc]
+9.8 +4.7 71 +9  1003.5  -1  731  283           
15 15.12.17 070 (В) 14000 м    9/0 средняя 
[Ac trans]
+5.6 +4 89 +5  1003.9  731  288           
18 15.12.17 080 (В) 16000 м    9/0 средняя 
[Ac trans]
+4.5 +3.8 95 +3  1003.6  -0.5  730  289           
21 15.12.17 тихо ()   20000 м    4/0 средняя 
[Ac trans]
+4.1 +3.1 93 +4  1002.6  -1  730  289           
00 16.12.17 100 (В) 15000 м    3/0 средняя 
[Ac trans]
+2.3 +1.5 94 1000.5  -2.2  728  291           
03 16.12.17 070 (В) 11000 м  в посл. час ливневой дождь  8/4 1000 м кучево-дожд., средняя 
[Cb calv|Ac trans]
+2.8 +2 94 +4  998.6  -1.8  727  289           
06 16.12.17 тихо ()   8000 м  дымка{ливн. осадки}  8/0 средняя 
[Ac trans]
+2.7 +1.9 94 +3  997.5  -1.1  726  289  +1.5    0.0     
09 16.12.17 310 (СЗ) 7000 м  дымка  10/10 180 м 
[St]
+4.7 +4 95 +3  998.1  0.8  726  287           
12 16.12.17 300 (СЗ) 50000 м    9/9 360 м 
[St]
+3.6 +1.6 87 999.6  1.4  727  289           
15 16.12.17 290 (З) 24000 м  слаб. ливневой дождь  10/10 400 м кучево-дожд. 
[Cb cap]
+2.7 +1.4 91 1003.6  3.7  730  291           
18 16.12.17 290 (З) 40000 м  {ливн. осадки}  8/8 300 м 
[Sc]
+2.2 +0.9 91 -1  1008.4  4.6  734  293    +4.8  0.0     
21 16.12.17 310 (СЗ) 45000 м    9/9 1500 м 
[Sc]
+2.2 -0.5 82 -1  1011.7  3.2  736  294           
00 17.12.17 290 (З) 29000 м    9/9 1500 м 
[Sc]
+1.5 -1.9 78 -1  1013.8  738  296           
03 17.12.17 300 (СЗ) 16000 м    9/9 1140 м 
[Sc]
+1 -1.6 83 -1  1015.5  1.6  739  297           
06 17.12.17 260 (З) 15000 м    9/9 1300 м 
[Sc]
+0.7 -1.6 85 1017.5  1.9  740  298  +0.6         
09 17.12.17 330 (СЗ) 20000 м    9/9 1320 м 
[Sc]
+1.6 -1.5 80 1018.3  0.9  741  297           
Время (UTC), дата Ветер
(°,м/с) 
Видим.   Явления Облачность Т
(°С)
Тd
(°С)
f(%) Тe
(°С)
Pmin
(гПа)
dP
(гПа)
Po
(мм)
O2
(г/м3)
Тmin Tmax R s Состояние
почвы

Для получения пояснительной информации подведите курсор к названию столбца.

ПОГОДА Черновцы - архив

Всё, что Вы хотите узнать о погоде Черновцы - удобно и подробно!

Выберите нужную дату (начиная с 1 января 2015* года) и нажмите кнопку "Найти".
Будут отображены архивные сводки погоды по пункту Черновцы, начиная с указанной даты.


Отображать данные в формате CSV (для использования в таблицах Excel)


Внимание! Наш архив погоды предназначен исключительно для личного некоммерческого использования в познавательных целях. Если Вам необходимы официальные справки о состоянии погоды (для производственных, юридических, коммерческих и т.п. целей), обращайтесь в органы Росгидромета.

*Примечание: данная дата относится к архиву по метеостанциям СССР (Россия, СНГ, Балтия).
Архив по метеостанциям Зарубежной Европы и Азии (кроме Китая) хранится 10 дней, по другим регионам земного шара (Китай, Африка, Америка, Австралия, Океания) - 1 день.

Черновцы - район местоположения метеостанции


Название, широта, долгота, высота метеостанции:
Черновцы 48.4°ш. 25.9°д. 246 м над ур. моря [Украина]

Дополнительная информация

В oтличие oт бoльшинства пoгoдных сайтoв мы публикуем пoдрoбную метеoинфoрмацию в детальнoм прoфессиoнальнoм фoрмате.

Характеристики температуры и влажнoсти вoздуха измеряются на высoте 2 м в тени вдали oт зданий и деревьев.
Скoрoсть ветра измеряется на высoте 10 м (на урoвне рoста челoвека скoрoсть ветра ниже в 1.5-2 раза). Если метеoстанция нахoдится в гoрoде или в лесу, тo скoрoсть ветра занижена на 2-4 м/с пo сравнению с oткрытым местoм. Скoрoсть ветра над акватoриями крупных рек и oзёр, а также на вершинах хoлмoв на 2-5 м/с выше, чем в oбычных услoвиях.
Атмoсфернoе давление в разных тoчках местнoсти мoжет значительнo oтличаться oт давления на метеoстанции, в зависимoсти oт услoвий рельефа (при пoдъёме на 10 м давление пoнижается примернo на 1 мм рт.ст.).